Location: Table Mountain
(47.2500°N, 120.5778°W)
Time: 07:00:30
(UTC-08:00)

Envisat - Pass Details

Date: 14 October 2017
Orbit: 764 x 766 km, 98.2° (Epoch: 16 December)

Event Time Altitude Azimuth Distance (km) Brightness Sun altitude
Exits shadow 20:40:30 72° 147° (SSE) 807 2.9 -25.2°
Maximum altitude 20:41:02 84° 76° (ENE) 775 2.8 -25.3°
Drops below altitude 10° 20:46:08 10° 347° (NNW) 2,313 5.8 -26.1°
Sets 20:48:27 0° 347° (NNW) 3,244 6.6 -26.5°
